EW7404 Weather Reports


Display with metric or nautical units.
time (UTC)temp
F
wind
direction
speed
MPH
gust
MPH
rain 1hr
in
rain 24hr
in
rain mn
in
humidity
%
barometer
mb
20260507220535 41 269 9.0 19.0 0.24 6.71 0.24 62 953.5
20260507215515 41 293 9.0 16.0 0.00 6.47 0.00 62 953.5
20260507214515 41 292 7.0 20.0 0.00 6.47 0.00 62 953.5
20260507213515 41 262 15.0 29.0 0.00 6.47 0.00 63 953.2
20260507212515 41 253 14.0 23.0 0.00 6.47 0.00 62 953.1
20260507211515 41 249 19.0 28.0 0.00 6.47 0.00 62 953.0
20260507210516 40 250 17.0 25.0 0.00 6.47 0.00 62 953.0
20260507205516 40 250 19.0 28.0 0.00 6.47 6.47 63 953.0
20260507204515 40 245 21.0 28.0 0.00 6.47 6.47 65 953.0
20260507203515 40 250 21.0 26.0 0.00 6.47 6.47 66 953.0
20260507202515 40 250 21.0 29.0 0.00 6.47 6.47 67 952.9
20260507201516 40 253 21.0 30.0 0.00 6.47 6.47 67 953.0
20260507200515 40 252 23.0 31.0 0.00 6.47 6.47 69 952.9
20260507195515 40 256 22.0 29.0 0.00 6.47 6.47 68 952.9
20260507194514 40 257 21.0 33.0 0.00 6.47 6.47 69 952.7
20260507193536 40 249 25.0 33.0 0.00 6.47 6.47 71 952.7
20260507192515 40 247 25.0 35.0 0.00 6.47 6.47 72 952.6
20260507191516 40 248 23.0 33.0 0.00 6.47 6.47 72 952.6
20260507190535 40 251 24.0 36.0 0.00 6.47 6.47 73 952.6
20260507185514 40 263 20.0 34.0 0.00 6.47 6.47 73 952.7
20260507184515 39 263 15.0 28.0 0.00 6.47 6.47 74 952.8
20260507183516 39 264 16.0 31.0 0.00 6.47 6.47 74 952.6
20260507182515 40 264 19.0 38.0 0.00 6.47 6.47 74 952.5
20260507181515 39 252 25.0 43.0 0.00 6.47 6.47 75 952.1
20260507180514 40 254 25.0 35.0 0.00 6.47 6.47 75 952.1
20260507175515 39 258 21.0 44.0 0.00 6.47 6.47 76 952.1
20260507174515 40 247 28.0 40.0 0.00 6.47 6.47 76 951.8
20260507173514 40 254 26.0 40.0 0.00 6.47 6.47 77 952.0
20260507172515 40 258 21.0 35.0 0.00 6.47 6.47 77 952.3
20260507171516 40 268 18.0 30.0 0.00 6.47 6.47 75 952.3
20260507170515 40 266 19.0 34.0 0.00 6.47 6.47 74 952.2
20260507165515 40 266 13.0 35.0 0.00 6.47 6.47 76 952.4
20260507164516 40 258 16.0 33.0 0.00 6.47 6.47 79 952.5
20260507163535 40 264 12.0 32.0 0.00 6.47 6.47 79 952.5
20260507162515 40 257 7.0 28.0 0.00 6.47 6.47 80 952.7
20260507161515 40 262 6.0 18.0 0.00 6.47 6.47 81 952.7
20260507160515 40 286 10.0 18.0 0.00 6.47 6.47 81 952.6
20260507155516 40 258 21.0 29.0 0.00 6.47 6.47 79 952.2
20260507154515 41 251 20.0 36.0 0.00 6.47 6.47 76 952.3
20260507153515 40 264 5.0 13.0 0.00 6.47 6.47 79 952.6
20260507152516 40 219 9.0 23.0 0.00 6.47 6.47 80 952.5
20260507151515 40 192 13.0 24.0 0.00 6.47 6.47 84 952.3
20260507150515 40 198 13.0 20.0 0.00 6.47 6.47 86 952.6
20260507145516 40 201 14.0 22.0 0.00 6.47 6.47 84 952.6
20260507144515 40 194 13.0 24.0 0.00 6.47 6.47 84 952.5
20260507143515 40 193 19.0 28.0 0.00 6.47 6.47 83 952.4
20260507142514 40 192 17.0 27.0 0.00 6.47 6.47 82 952.4
20260507141515 39 183 12.0 21.0 0.00 6.47 6.47 89 952.6
20260507140515 39 153 9.0 17.0 0.00 6.47 6.47 98 952.8
20260507135516 40 165 6.0 13.0 0.00 6.47 6.47 87 952.9
20260507134536 40 225 6.0 11.0 0.00 6.47 6.47 90 953.2
20260507133535 40 326 3.0 4.0 0.00 9.03 6.47 98 953.8
20260507132515 41 255 3.0 5.0 0.00 9.03 6.47 87 953.5
20260507131515 41 161 2.0 6.0 0.00 9.03 6.47 83 953.6
20260507130535 42 15 3.0 6.0 0.00 9.03 6.47 87 953.7
20260507125515 42 134 2.0 6.0 0.00 9.03 6.47 84 953.4
20260507124516 42 214 6.0 11.0 0.00 9.03 6.47 77 953.4
20260507123515 42 218 7.0 13.0 0.00 9.03 6.47 73 953.6
20260507122515 42 238 3.0 7.0 0.00 9.03 6.47 74 953.6
20260507121515 41 139 3.0 5.0 0.00 9.03 6.47 78 953.6
20260507120515 41 188 4.0 10.0 0.00 9.03 6.47 77 953.6
20260507115515 41 151 5.0 16.0 0.00 9.03 6.47 79 953.7
20260507114516 41 171 11.0 19.0 0.00 9.03 6.47 77 953.6
20260507113515 41 193 11.0 20.0 0.00 9.03 6.47 74 953.7
20260507112515 43 158 7.0 16.0 0.00 9.03 6.47 71 953.7
20260507111515 42 175 6.0 15.0 0.00 9.03 6.47 73 953.9
20260507110515 42 224 8.0 17.0 0.00 9.27 6.47 73 953.9
20260507105516 43 228 7.0 17.0 0.00 9.27 6.47 75 954.0
20260507104516 43 224 6.0 13.0 0.00 9.27 6.47 73 954.0
20260507103035 43 234 9.0 17.0 0.00 9.27 6.47 71 954.1
20260507102015 42 220 3.0 7.0 0.00 9.27 6.47 80 954.1
20260507101014 43 345 3.0 5.0 0.00 9.27 6.47 79 954.1
20260507100015 43 265 6.0 11.0 2.56 9.27 6.47 68 954.1
20260507095016 44 293 4.0 7.0 2.56 9.27 6.47 65 954.1
20260507094015 43 256 3.0 6.0 2.76 9.27 6.47 68 954.6
20260507093015 43 262 7.0 11.0 2.76 9.27 6.47 69 954.1
20260507092015 43 296 3.0 8.0 2.76 9.27 6.47 69 954.1
20260507091035 43 274 7.0 13.0 2.76 9.27 6.47 69 954.1
20260507090014 43 290 5.0 12.0 0.20 6.71 3.91 69 954.1
20260507085015 44 324 3.0 9.0 0.20 6.71 3.91 68 953.9
20260507084015 43 265 4.0 11.0 0.20 6.51 3.71 71 953.9
20260507083015 43 341 3.0 6.0 0.20 6.51 3.71 71 953.9
20260507082015 43 262 4.0 9.0 0.20 6.51 3.71 69 953.9
20260507081015 44 258 5.0 10.0 0.20 6.51 3.71 68 953.8
20260507080035 43 271 8.0 13.0 0.20 6.51 3.71 68 953.7
20260507075015 43 256 10.0 16.0 0.20 6.51 3.71 67 953.6
20260507074015 44 268 9.0 20.0 0.00 6.31 3.52 66 953.5
20260507073016 44 259 7.0 12.0 0.00 6.31 3.52 65 953.5
20260507072015 44 244 5.0 12.0 0.00 6.31 3.52 64 953.4
20260507071015 44 246 4.0 9.0 0.00 6.31 3.52 65 953.8
20260507070015 43 235 8.0 14.0 0.00 6.31 3.52 66 953.5
20260507065015 43 219 7.0 16.0 2.56 6.31 3.52 66 953.4
20260507064016 43 241 10.0 18.0 2.56 6.31 3.52 66 953.4
20260507063015 43 247 10.0 14.0 2.56 6.31 3.52 65 953.4
20260507062015 43 232 8.0 13.0 2.56 6.31 3.52 64 953.4
20260507061016 43 234 9.0 15.0 2.56 6.31 3.52 63 953.4
20260507060015 42 228 10.0 17.0 2.56 6.31 3.52 62 953.2
20260507055016 42 220 9.0 16.0 0.00 3.75 0.96 62 953.5
20260507054015 42 236 10.0 16.0 0.00 3.75 0.96 63 953.3
20260507053015 42 222 8.0 12.0 0.00 3.75 0.96 63 953.5
20260507052014 42 218 8.0 12.0 0.00 3.75 0.96 62 953.1
20260507051015 42 224 8.0 14.0 0.00 3.75 0.96 62 953.0
20260507050016 42 224 8.0 14.0 0.00 3.75 0.96 61 953.0
20260507045016 42 213 7.0 11.0 0.00 3.75 0.96 58 952.9
20260507044015 43 217 8.0 11.0 0.24 3.75 0.96 57 952.8
20260507043015 43 193 6.0 8.0 0.24 3.75 0.96 56 952.7
20260507042015 42 169 5.0 7.0 0.47 3.75 0.96 57 952.7
20260507041015 42 193 4.0 6.0 0.47 3.75 0.96 57 952.7
20260507040016 42 198 5.0 6.0 0.47 3.75 0.96 59 952.7
20260507035015 42 207 5.0 6.0 0.47 3.75 0.96 60 952.6
20260507034015 42 228 6.0 9.0 0.24 3.52 0.72 62 952.6
20260507033035 42 233 7.0 10.0 0.24 3.52 0.72 62 952.5
20260507032015 42 205 6.0 9.0 0.00 3.28 0.49 61 952.4
20260507031015 41 200 6.0 9.0 0.00 3.28 0.49 63 952.3
20260507030015 42 210 6.0 8.0 0.00 3.28 0.49 61 952.4
20260507025016 41 222 6.0 9.0 0.00 3.28 0.49 63 952.4
20260507024015 41 235 6.0 9.0 0.00 3.28 0.49 62 952.3
20260507023016 41 231 4.0 8.0 0.00 3.28 0.49 62 952.3
20260507022015 41 240 5.0 11.0 0.00 3.28 0.49 62 952.3
20260507021015 41 225 6.0 8.0 0.24 3.28 0.49 62 952.4
20260507020015 41 224 7.0 11.0 0.24 3.28 0.49 64 952.3
20260507015035 41 225 9.0 13.0 0.24 3.28 0.49 63 952.3
20260507014016 41 228 8.0 13.0 0.24 3.28 0.49 63 952.3
20260507013015 42 219 9.0 12.0 0.24 3.28 0.49 62 952.4
20260507012016 41 221 8.0 10.0 0.24 3.28 0.49 61 952.4
20260507011015 41 226 9.0 13.0 0.00 3.05 0.25 61 952.3
20260507010036 41 230 8.0 12.0 0.01 3.05 0.25 61 952.2
20260507005015 41 232 9.0 13.0 0.01 3.05 0.25 61 952.3
20260507004035 41 219 9.0 13.0 0.01 3.05 0.25 61 952.2
20260507003014 41 230 9.0 13.0 0.25 3.05 0.25 62 952.2
20260507002035 41 230 10.0 15.0 0.25 3.05 0.25 61 952.2
20260507001036 41 241 12.0 19.0 0.25 3.05 0.25 62 952.2
20260507000015 41 244 13.0 18.0 0.24 3.03 0.24 62 952.1
20260506235016 41 248 14.0 18.0 0.24 3.03 0.24 60 952.2
20260506234015 42 247 15.0 19.0 0.24 3.03 0.24 59 952.2
20260506233015 42 253 16.0 19.0 0.00 2.80 0.00 57 952.1
20260506232015 42 257 13.0 17.0 0.00 2.80 0.00 55 952.2
20260506231015 42 254 13.0 16.0 0.00 2.80 0.00 55 952.2
20260506230016 42 250 15.0 18.0 0.00 2.80 0.00 55 952.1
20260506225015 42 251 12.0 16.0 0.00 2.80 0.00 54 952.2
20260506224016 42 239 15.0 20.0 0.00 2.80 0.00 56 952.1
20260506223015 42 244 13.0 18.0 0.00 2.80 0.00 57 952.2
20260506222015 42 239 10.0 15.0 0.00 2.80 0.00 56 952.3
20260506221036 42 231 7.0 10.0 0.00 2.80 0.00 55 952.4